This is the latest recevied weather packets stored in our database for station/object DL4ABR-6. If no packets are shown the sender has not sent any weather packets the latest 10 day(s).
| Time | Temp. | Humidity | Pressure | Rain* | Wind** | Luminosity | Snow |
|---|---|---|---|---|---|---|---|
| 1777741680 | 26.11° C | 35% | 1011.1 hPa | 0 mm | - | - | - |
| 1777740920 | 26.11° C | 34% | 1011 hPa | 0 mm | - | - | - |
| 1777740024 | 26.67° C | 34% | 1011.3 hPa | 0 mm | - | - | - |
| 1777739295 | 26.11° C | 33% | 1011.4 hPa | 0 mm | - | - | - |
| 1777738400 | 27.22° C | 34% | 1011.7 hPa | 0 mm | - | - | - |
| 1777737535 | 26.67° C | 32% | 1011.6 hPa | 0 mm | - | - | - |
| 1777736804 | 26.67° C | 32% | 1011.7 hPa | 0 mm | - | - | - |
| 1777735970 | 27.22° C | 31% | 1011.8 hPa | 0 mm | - | - | - |
| 1777735155 | 27.78° C | 31% | 1012.1 hPa | 0 mm | - | - | - |
| 1777734365 | 27.22° C | 30% | 1012.2 hPa | 0 mm | - | - | - |
| 1777733595 | 27.78° C | 31% | 1012.2 hPa | 0 mm | - | - | - |
| 1777732854 | 27.78° C | 30% | 1012.5 hPa | 0 mm | - | - | - |
| 1777732135 | 27.78° C | 27% | 1012.5 hPa | 0 mm | - | - | - |
| 1777731335 | 28.89° C | 27% | 1012.5 hPa | 0 mm | - | - | - |
| 1777730585 | 28.33° C | 28% | 1012.8 hPa | 0 mm | - | - | - |
| 1777729690 | 27.78° C | 27% | 1012.8 hPa | 0 mm | - | - | - |
| 1777728905 | 28.33° C | 26% | 1013.1 hPa | 0 mm | - | - | - |
| 1777728155 | 28.33° C | 27% | 1013.1 hPa | 0 mm | - | - | - |
| 1777727340 | 27.78° C | 28% | 1013.3 hPa | 0 mm | - | - | - |
| 1777726570 | 27.78° C | 29% | 1013.3 hPa | 0 mm | - | - | - |
| 1777725820 | 27.22° C | 30% | 1013.6 hPa | 0 mm | - | - | - |
| 1777725010 | 27.22° C | 29% | 1013.8 hPa | 0 mm | - | - | - |
| 1777724174 | 27.22° C | 28% | 1013.9 hPa | 0 mm | - | - | - |
| 1777723310 | 26.67° C | 27% | 1014.4 hPa | 0 mm | - | - | - |
| 1777722520 | 26.67° C | 30% | 1014.5 hPa | 0 mm | - | - | - |
* Rain since midnight (hover to see other rain measurements)
** Current wind speed in m/s (hover to see current wind gust speed)